Location: Eastlake (historical)
(39.0077°N, 122.6678°W)
Time: 10:44:55
(UTC+00:00)

ALOS - Pass Details

Date: 24 April 2021
Orbit: 682 x 685 km, 97.9° (Epoch: 08 May)

Event Time Altitude Azimuth Distance (km) Brightness Sun altitude
Rises 11:23:27 0° 29° (NNE) 3,052 6.8 -21.0°
Reaches altitude 10° 11:26:16 10° 46° (NE) 2,131 6.0 -20.6°
Maximum altitude 11:29:40 20° 93° (E) 1,567 4.7 -20.0°
Drops below altitude 10° 11:33:03 10° 140° (SE) 2,119 4.8 -19.5°
Sets 11:35:49 0° 158° (SSE) 3,029 5.5 -19.1°
